Dewpoint
53 38 38 32 17 14 11 20 22 22 34 36 42 51 50 50 52 50 61 61 65 63 62 65 67 69 69 68 68 68 66 68 69 69 69 69 69 67 66 64 63 63 62 65 66 65 66 66 66
44 37 32 26 8 0 9 21 21 22 26 27 38 48 49 48 50 53 60 54 63 64 63 64 67 68 69 69 69 69 68 68 68 69 69 68 68 67 66 65 63 62 62 62 65 65 66 66 65
32 30 24 15 5 -3 13 22 23 23 27 34 40 41 44 46 46 46 48 54 65 64 62 64 66 67 69 69 70 69 69 69 68 68 68 68 68 68 67 65 64 63 62 62 65 66 66 65 65
32 27 21 5 11 20 21 22 24 23 24 30 36 38 34 37 38 39 44 57 64 64 63 65 68 66 67 69 69 69 69 69 68 68 68 67 68 67 66 66 65 63 62 61 63 66 66 66 65
25 20 11 15 19 22 23 25 25 22 24 27 34 33 31 33 36 37 39 51 65 65 64 63 67 66 66 67 69 69 69 69 69 68 67 67 67 66 67 64 63 62 61 61 62 65 66 65 65
20 17 4 7 18 22 24 27 25 23 23 25 29 30 29 32 35 38 38 41 62 66 65 65 65 66 66 67 67 67 68 69 69 68 68 67 67 67 66 64 62 61 61 61 61 64 65 65 64
20 14 13 17 19 21 24 28 25 25 23 25 27 27 28 30 35 37 38 41 56 67 66 66 64 64 66 67 66 67 68 69 69 68 67 67 67 66 65 63 61 61 60 60 61 63 64 65 64
24 19 17 20 18 18 27 26 29 27 24 29 29 22 25 29 33 35 36 41 46 54 62 64 66 66 64 63 66 66 66 67 67 66 66 66 67 66 64 60 60 61 60 60 61 62 64 64 64
29 17 15 18 18 21 27 23 25 29 24 24 28 27 29 30 34 33 34 36 38 41 43 50 57 65 65 65 64 66 66 66 66 66 65 63 62 61 60 58 59 61 60 60 61 62 64 65 64
26 18 20 22 23 22 25 25 25 24 23 21 24 28 29 30 31 31 31 32 36 38 40 44 48 58 63 66 66 64 64 65 65 64 63 62 61 60 58 57 57 58 59 61 61 63 64 63 60
26 21 25 26 29 29 27 26 29 26 20 21 20 25 29 30 30 31 30 32 34 38 40 42 43 50 55 60 66 66 65 65 65 64 62 61 60 59 57 56 54 55 56 56 59 62 56 54 59
21 27 26 28 31 30 28 28 26 28 23 26 27 29 30 29 31 32 32 32 33 38 42 46 45 44 48 54 60 65 66 65 65 64 61 60 59 58 56 54 54 53 53 54 60 60 59 55 59
22 26 28 30 31 30 31 28 27 27 28 29 28 29 29 28 30 31 33 34 37 40 44 45 46 46 47 50 54 58 63 65 64 63 61 60 59 58 57 55 54 53 54 55 57 57 57 56 56
30 30 29 30 29 30 28 27 29 25 28 27 27 27 28 29 30 31 34 37 38 40 40 42 43 45 45 45 48 51 56 60 64 63 62 61 61 60 58 57 55 54 56 55 55 55 56 56 57
27 23 24 25 27 27 27 22 26 26 27 26 26 27 29 29 29 30 36 39 40 40 42 42 42 44 45 46 47 48 53 57 61 63 62 61 60 59 59 58 56 55 57 55 52 54 54 54 55
19 18 12 20 25 27 24 8 22 26 26 26 26 26 26 29 29 34 40 42 42 42 42 44 44 44 45 46 48 48 49 55 58 61 62 61 60 59 59 58 57 57 57 53 51 53 53 53 54
11 3 10 14 25 24 22 13 19 25 25 24 25 24 23 29 33 38 41 41 43 43 43 44 45 45 46 47 49 50 50 54 56 56 60 61 60 58 58 58 57 57 57 54 51 52 53 53 53
8 9 13 14 19 24 19 18 16 20 23 22 21 23 26 29 33 35 36 39 41 42 43 44 45 46 47 49 50 52 53 54 58 56 57 59 60 59 58 57 56 56 54 51 50 51 52 52 51
20 18 15 17 23 23 18 19 17 24 26 27 26 26 27 29 32 34 33 40 42 40 40 42 44 45 47 48 50 50 51 52 53 56 55 57 59 59 58 57 56 56 54 52 52 52 51 50 47
22 17 12 18 21 24 20 19 21 25 27 27 27 26 27 27 29 30 32 39 41 40 41 42 43 45 47 49 51 52 52 52 55 55 57 54 57 58 58 57 56 55 55 51 52 51 50 49 50
19 15 16 19 23 26 24 16 20 23 26 27 27 27 27 26 26 29 33 38 41 40 42 43 45 46 46 47 50 52 51 51 52 53 54 56 56 57 57 57 56 55 53 51 51 51 50 48 50
13 21 25 25 21 11 25 12 17 21 23 25 25 24 25 26 27 26 31 35 40 41 44 43 43 44 45 46 48 49 50 48 50 51 52 53 55 56 57 56 56 55 54 52 51 51 50 49 48
20 27 27 26 24 25 21 20 16 20 21 23 21 23 26 25 26 27 27 35 39 42 44 43 42 42 43 44 46 49 49 49 50 50 52 52 54 55 56 56 55 55 53 52 51 51 50 50 49
28 24 21 27 26 19 23 18 13 17 18 21 21 23 23 24 25 26 29 31 37 43 43 43 42 42 42 43 44 45 49 49 49 49 50 51 53 54 55 55 55 55 54 53 51 51 51 51 50
26 18 15 12 16 9 21 18 16 21 21 21 22 22 23 27 30 31 29 31 36 42 42 42 42 40 40 41 43 44 46 51 50 49 48 49 51 52 53 54 54 54 53 53 52 51 50 51 50
24 18 14 6 8 7 17 14 16 21 22 22 23 24 27 31 35 37 34 36 41 42 42 42 40 40 41 41 43 44 45 49 51 50 49 49 51 51 52 53 53 53 52 52 52 51 51 51 49
24 19 22 20 19 18 14 16 21 21 21 23 24 26 29 33 38 39 40 41 41 41 41 40 41 41 41 42 43 44 44 47 51 51 51 51 52 51 51 52 52 52 51 50 50 50 50 50 49
25 25 18 20 12 7 11 12 12 20 21 22 24 27 29 32 36 38 39 40 40 40 40 41 41 41 41 42 43 44 45 46 49 51 50 50 51 51 51 51 51 51 50 50 50 50 50 49 49
25 23 24 20 19 13 10 10 21 21 21 20 21 23 26 30 32 35 36 38 39 39 39 40 40 40 41 42 42 43 44 47 49 51 50 50 50 51 50 51 50 50 50 49 49 49 48 48 46
25 22 22 17 17 21 20 14 23 22 20 19 20 21 23 25 27 28 29 34 38 39 39 39 39 39 39 41 41 42 44 46 51 50 50 50 49 50 50 50 50 49 49 48 48 47 47 46 45
Wind_Speed
3 2 1 2 5 3 5 3 1 3 2 3 4 6 6 7 6 3 3 10 12 6 12 11 11 10 11 9 9 7 10 12 16 17 16 17 18 18 16 15 13 13 12 12 10 12 15 15 16
1 1 1 1 3 8 5 2 4 5 5 5 1 1 1 5 5 3 3 16 13 5 11 10 14 12 10 9 9 9 9 12 15 15 16 16 17 19 19 17 14 12 11 10 11 12 14 16 16
2 1 1 3 1 4 3 3 3 2 5 2 2 4 3 3 2 4 9 14 10 4 11 8 10 12 11 9 9 9 10 10 10 11 14 15 15 16 16 17 15 12 9 7 10 13 15 15 14
1 2 3 1 5 4 4 4 5 1 1 6 2 5 4 5 4 10 10 14 7 2 11 10 6 10 11 10 9 10 10 11 12 10 9 11 12 12 13 16 14 14 9 8 9 11 16 15 14
2 1 3 4 4 5 4 3 3 4 2 6 3 3 4 3 5 8 11 12 12 5 4 8 8 9 9 11 10 10 10 9 9 8 10 9 9 12 18 16 14 13 12 10 10 8 16 16 14
1 2 3 4 5 5 2 3 1 3 4 4 3 2 3 3 6 9 10 11 9 3 1 2 5 8 10 11 12 11 11 11 10 11 11 12 13 16 17 16 14 12 10 11 11 9 15 15 14
2 2 3 4 6 5 2 2 1 3 2 4 2 1 3 3 7 8 8 10 12 9 4 3 5 6 8 9 12 12 12 12 13 13 14 16 19 16 15 15 12 10 9 11 11 11 11 12 14
2 2 3 2 5 3 3 3 3 5 2 3 2 3 3 4 7 7 6 8 11 12 11 10 7 6 6 9 12 13 15 16 16 17 17 18 20 20 15 13 11 10 10 10 10 11 11 11 13
2 2 5 3 2 3 3 3 2 3 6 3 2 2 3 6 4 5 6 7 7 9 10 8 9 7 6 8 9 13 13 15 18 19 17 16 14 14 16 9 13 9 10 11 10 10 12 12 13
4 2 3 3 3 2 2 2 4 3 5 5 5 3 2 5 5 6 6 6 7 8 8 9 8 8 6 3 8 11 12 14 16 16 15 14 9 9 10 11 11 7 10 12 12 12 13 14 13
3 3 5 3 1 1 0 1 2 4 3 2 3 3 4 5 3 5 3 4 6 6 8 10 9 9 8 6 4 4 9 11 13 14 14 12 9 9 10 9 8 10 11 13 13 14 13 15 12
5 3 1 3 0 2 3 2 3 4 2 2 3 4 5 5 3 4 3 4 5 7 8 9 10 9 9 7 5 3 3 7 9 9 14 12 12 11 9 8 8 10 13 10 12 10 6 12 11
6 4 1 1 3 6 5 6 6 9 8 4 3 4 5 4 3 2 3 4 4 7 8 10 11 11 10 8 6 5 4 5 5 6 8 8 11 12 10 8 8 10 10 12 10 8 8 7 10
3 3 3 2 1 1 5 8 5 2 8 9 2 1 2 2 2 3 6 5 5 6 9 9 11 11 11 9 9 7 7 6 6 8 10 8 9 8 12 9 10 10 10 11 9 9 9 8 9
3 3 2 4 5 1 6 4 5 3 7 10 5 2 1 2 4 5 5 5 4 5 6 9 10 11 12 11 10 8 8 7 8 8 11 13 13 13 8 13 12 11 10 7 10 9 8 7 6
2 3 3 2 9 2 7 3 4 5 8 12 10 6 2 2 7 5 5 5 5 6 8 9 11 12 13 12 10 9 9 9 9 9 8 11 14 17 15 13 14 11 5 8 10 11 8 7 7
1 2 2 3 3 6 3 9 2 3 7 13 14 12 8 6 7 6 4 3 4 5 8 10 12 13 14 12 10 9 9 9 9 9 8 10 14 16 16 15 14 16 12 11 12 10 9 9 7
3 3 3 5 2 6 13 17 16 16 13 19 15 11 8 10 6 4 4 4 4 4 7 8 9 12 14 12 10 8 7 7 8 10 10 9 10 14 14 13 15 16 15 9 12 14 13 9 8
1 4 7 4 2 10 6 19 21 11 7 4 6 6 9 7 3 4 7 6 6 5 9 10 9 11 12 12 12 8 7 7 6 9 11 11 9 11 13 12 14 14 16 19 16 17 22 12 9
3 6 5 6 2 9 12 19 4 9 10 7 6 7 8 4 4 5 8 7 6 8 9 11 11 11 11 10 11 8 9 7 7 7 11 12 9 9 11 13 15 20 16 15 20 18 15 8 17
3 5 6 6 13 2 13 1 4 6 10 12 11 10 10 9 8 9 9 8 7 10 13 13 12 12 11 11 10 9 8 6 7 8 8 8 9 9 12 13 15 17 17 16 17 18 20 15 18
5 1 5 10 10 6 6 2 5 5 8 11 11 12 12 12 12 15 13 12 11 11 12 13 13 13 11 12 11 10 9 10 8 8 8 9 10 12 13 14 13 16 15 17 19 19 19 19 21
3 5 7 5 6 5 1 3 4 3 6 8 11 12 12 14 15 16 17 15 12 10 11 12 14 15 13 12 11 11 12 9 9 10 9 7 8 10 12 12 14 15 17 21 22 20 20 20 23
5 3 4 2 1 2 3 6 4 5 5 6 9 10 14 19 19 16 16 16 13 10 11 14 17 17 16 14 13 13 14 13 10 9 10 9 10 9 12 14 13 16 17 20 17 21 19 17 20
2 5 4 3 2 1 1 3 5 8 5 8 9 13 16 18 19 20 19 17 13 12 13 15 19 20 19 17 14 14 14 14 13 13 11 12 11 10 12 13 14 13 15 20 21 19 20 17 17
2 2 2 5 4 6 1 6 6 7 9 9 12 14 16 19 19 20 19 16 12 13 16 19 21 22 21 19 17 14 14 13 11 11 12 11 12 13 13 13 12 14 15 15 17 21 21 20 16
1 1 2 1 2 4 3 3 7 7 11 16 17 18 19 20 22 22 19 16 14 15 17 19 21 21 20 19 18 16 14 14 12 11 10 12 11 10 12 13 13 13 13 15 17 17 19 20 18
3 5 1 3 3 6 4 6 4 5 14 17 19 19 18 18 19 20 19 18 17 16 17 19 19 20 20 19 17 16 16 17 15 11 11 11 10 11 10 14 15 15 15 16 18 15 15 19 16
1 2 1 2 3 5 6 3 6 8 9 12 13 13 15 16 17 18 18 18 17 19 20 20 20 21 21 20 19 18 15 17 15 13 12 11 11 11 13 14 16 16 16 16 15 14 16 17 17
2 5 6 6 5 4 3 8 7 9 8 8 10 12 14 16 17 18 20 20 21 21 22 22 22 23 22 21 21 19 16 17 8 10 10 10 12 13 13 14 14 14 15 16 17 16 15 17 18
Wind_Direction
324 25 166 219 195 225 174 108 23 71 102 40 343 13 58 36 360 48 352 9 331 297 202 180 185 183 171 169 145 144 149 148 157 158 160 158 157 151 150 144 142 139 134 130 122 119 127 123 116
92 173 210 152 224 202 150 87 108 41 1 317 181 264 66 69 32 24 48 342 326 298 180 194 170 186 184 177 163 158 159 156 163 171 171 172 168 161 156 146 141 138 142 138 127 120 118 120 122
110 340 225 140 157 222 141 107 45 26 18 50 123 35 30 44 54 17 341 327 315 263 197 182 177 180 185 187 170 169 172 172 175 184 176 179 177 174 166 144 138 130 129 132 132 127 128 127 126
238 158 105 218 119 87 80 72 8 25 116 42 18 91 96 29 359 2 346 336 328 117 193 148 187 184 188 189 193 187 189 184 179 188 179 188 194 185 155 133 130 125 127 146 146 139 138 135 133
29 239 115 107 95 110 91 36 11 53 71 31 351 100 93 62 1 6 1 9 10 15 176 181 188 197 194 194 200 199 199 183 182 179 175 182 189 159 136 133 130 131 144 158 156 142 146 140 142
60 294 162 151 134 134 112 7 332 44 45 48 92 122 95 62 17 0 359 13 9 356 262 216 194 211 215 213 211 209 202 196 186 176 169 154 145 143 141 139 138 139 152 167 166 153 154 152 153
54 18 68 111 127 147 114 353 22 8 15 47 348 208 108 113 16 358 6 14 30 49 45 342 247 205 219 229 223 215 211 204 192 181 170 150 142 143 146 146 136 137 166 177 175 170 168 155 147
40 52 100 71 159 113 56 359 354 341 31 341 295 221 171 51 2 354 14 34 43 51 48 30 322 273 246 219 220 228 224 209 193 180 170 154 154 154 153 136 138 161 174 187 180 187 171 152 154
319 99 95 84 126 64 17 336 21 323 293 287 272 263 38 357 358 21 32 41 42 43 38 36 20 0 264 260 238 223 228 200 186 177 170 166 179 171 160 148 148 166 184 188 195 188 163 146 160
24 55 108 137 124 89 10 325 333 288 303 260 235 214 335 356 7 22 32 28 28 22 21 21 24 22 13 323 263 239 226 209 194 190 185 201 205 193 191 149 145 180 203 187 203 193 162 171 166
28 88 137 141 126 154 18 301 311 298 257 258 258 240 316 338 337 348 3 20 14 25 24 19 13 9 15 14 351 285 236 219 216 214 210 212 185 172 181 170 171 187 202 183 205 182 179 187 171
108 73 60 135 115 281 308 298 275 251 304 335 286 289 294 298 302 333 16 48 55 46 37 27 23 20 8 353 355 351 274 245 217 210 209 202 196 186 192 188 188 198 185 191 178 163 186 185 178
88 133 102 26 305 304 295 267 276 253 231 260 296 259 259 262 275 85 93 96 77 60 41 31 23 20 10 359 347 325 293 227 214 214 193 190 171 168 185 187 189 197 189 189 176 162 147 187 170
72 90 93 93 25 296 305 297 294 201 175 178 176 221 232 219 166 138 138 109 72 55 40 23 17 10 2 356 340 317 303 275 216 215 214 178 169 159 170 177 189 193 206 191 170 152 148 147 162
99 135 182 49 337 245 319 243 230 183 185 199 190 80 33 261 205 161 125 100 65 57 27 19 6 358 353 345 335 313 290 271 260 234 206 173 177 171 182 179 185 188 185 169 151 131 136 135 142
165 182 248 30 350 341 328 289 170 189 221 236 241 253 313 142 152 136 116 88 48 25 9 360 355 349 344 337 328 313 294 272 260 255 229 193 188 176 178 194 172 156 149 164 165 147 131 135 163
17 289 307 284 59 325 329 290 201 181 255 253 249 259 274 182 149 131 109 68 38 9 355 347 344 341 338 328 321 311 293 272 258 250 250 220 197 185 182 191 176 162 156 170 163 141 135 137 140
291 304 280 273 342 322 294 274 299 303 281 271 259 256 218 178 147 98 57 30 4 358 348 336 333 332 335 328 320 311 301 282 273 261 244 242 207 189 190 187 173 166 150 163 143 135 113 125 139
218 276 284 289 345 326 301 299 317 337 327 273 205 180 166 154 96 50 19 6 351 351 344 342 336 338 339 333 327 319 309 300 268 272 252 246 235 192 187 176 172 167 181 171 167 139 133 117 127
293 294 312 294 232 324 309 308 350 21 33 37 95 110 123 90 71 30 359 347 345 340 347 342 337 334 334 329 319 304 304 291 286 266 257 240 232 202 187 181 181 182 171 171 176 165 148 138 157
315 311 329 311 319 223 315 256 85 58 65 70 70 82 78 63 31 6 349 337 330 341 342 338 334 328 327 327 318 309 297 285 271 257 247 232 216 203 199 192 182 180 170 180 181 173 166 158 180
302 340 317 315 328 311 358 308 72 19 84 73 85 75 64 51 29 9 349 338 333 335 335 337 338 334 330 325 316 306 295 284 280 282 261 241 222 208 211 209 191 187 190 187 185 187 185 170 181
317 337 310 307 297 304 9 293 58 42 91 93 85 77 57 19 353 342 344 328 325 329 333 332 332 330 333 329 314 300 283 275 278 259 254 231 226 216 203 199 202 190 186 190 193 188 195 188 176
308 268 266 217 252 246 23 0 72 34 17 103 89 52 9 355 347 340 330 334 323 332 335 335 332 326 326 326 317 300 289 280 268 264 255 229 214 204 204 207 202 200 196 188 185 188 194 201 189
337 316 312 267 255 268 70 303 30 30 50 64 30 5 0 358 355 348 344 341 336 340 341 337 331 325 323 321 316 307 292 284 276 271 264 241 220 198 204 201 201 202 205 208 197 192 197 191 182
68 90 157 283 279 291 266 227 142 91 68 40 16 6 6 4 360 358 355 355 356 350 342 333 327 324 322 319 315 308 294 281 268 265 261 247 229 222 204 200 203 207 197 197 204 201 192 194 174
105 154 108 253 271 274 227 202 110 111 34 19 15 10 7 4 3 1 1 2 354 345 339 332 327 325 323 320 316 313 303 286 269 262 256 251 233 211 206 202 197 192 195 193 198 197 197 192 184
295 139 208 192 266 273 223 261 201 42 10 10 11 8 1 357 358 357 357 354 348 347 343 337 333 329 325 322 318 313 307 294 281 256 249 241 234 220 215 203 194 193 197 199 196 196 195 185 186
207 207 195 288 229 266 293 224 107 65 38 18 11 5 359 355 353 350 350 349 348 352 349 340 339 335 331 325 319 312 304 292 275 235 236 237 231 214 213 205 208 201 195 196 196 190 184 173 165
240 227 218 232 212 232 302 272 123 69 49 31 14 5 1 3 1 0 357 351 351 350 350 343 339 337 331 323 319 314 309 304 258 233 224 220 224 228 218 213 200 192 191 187 190 184 181 182 182